• MPC Preparation (Info)

  • MPEC 2024-F11 : 2024 FA

    The following Minor Planet Electronic Circular may be linked-to from your own Web pages, but must not otherwise be redistributed electronically.

    A form allowing access to any MPEC is at the bottom of this page.


    Read MPEC 2024-F10 Read MPEC 2024-F12


    M.P.E.C. 2024-F11                                Issued 2024 March 17, 23:00 UT
    
         The Minor Planet Electronic Circulars contain information on unusual
             minor planets, routine data on comets and natural satellites,
             and occasional editorial announcements.  They are published
        on behalf of Division F of the International Astronomical Union by the
              Minor Planet Center, Smithsonian Astrophysical Observatory,
                              Cambridge, MA 02138, U.S.A.
    			  
                 Prepared using the Tamkin Foundation Computer Network
    
                                  MPC@CFA.HARVARD.EDU
                URL https://www.minorplanetcenter.net/    ISSN 1523-6714
    
                                     2024 FA                                 
    
    
    Observations:
         K24F00A* C2024 03 16.54163512 35 07.901+06 24 16.26         20.31wXEF011F52
         K24F00A  C2024 03 16.55340212 35 04.029+06 25 15.38         20.15wXEF011F52
         K24F00A  C2024 03 16.56513912 35 00.175+06 26 14.06         20.18wXEF011F52
         K24F00A pC2024 03 16.92838412 33 09.24 +06 55 59.6          20.2 GVEF011L01
         K24F00A pC2024 03 16.93006812 33 08.71 +06 56 07.6          20.3 GVEF011L01
         K24F00A pC2024 03 16.93175112 33 08.17 +06 56 16.1          20.5 GVEF011L01
         K24F00A pC2024 03 16.93343312 33 07.61 +06 56 24.5          20.7 GVEF011L01
         K24F00A pC2024 03 16.93511412 33 07.06 +06 56 32.8          20.5 GVEF011L01
         K24F00A 1C2024 03 16.95553 12 33 00.56 +06 58 09.7          19.8 VXEF011033
         K24F00A 1C2024 03 16.95628 12 33 00.35 +06 58 13.1          20.0 VXEF011033
         K24F00A 1C2024 03 16.95703 12 33 00.09 +06 58 17.3          20.0 VXEF011033
         K24F00A 1C2024 03 16.95778 12 32 59.84 +06 58 21.1          20.0 VXEF011033
         K24F00A KC2024 03 16.96314012 32 58.22 +06 58 50.4          20.1 GVEF011104
         K24F00A KC2024 03 16.97319612 32 55.06 +06 59 39.8          19.8 GVEF011104
         K24F00A KC2024 03 16.98262412 32 52.03 +07 00 26.3          20.5 GVEF011104
         K24F00A 1C2024 03 17.02548 12 32 38.34 +07 03 51.1          20.6 VXEF011033
         K24F00A 1C2024 03 17.02604 12 32 38.14 +07 03 53.6          20.4 VXEF011033
         K24F00A 1C2024 03 17.02661 12 32 37.97 +07 03 56.5          20.6 VXEF011033
         K24F00A 1C2024 03 17.02719 12 32 37.79 +07 03 59.3          20.6 VXEF011033
         K24F00A KB2024 03 17.11669012 32 09.65 +07 11 15.5          19.8 GXEF011958
         K24F00A KB2024 03 17.11990612 32 08.70 +07 11 29.9          19.7 GXEF011958
         K24F00A KB2024 03 17.12312812 32 07.69 +07 11 45.7          19.8 GXEF011958
         K24F00A |C2024 03 17.20615012 31 43.650+07 19 15.80         19.9 GVEF011807
         K24F00A |C2024 03 17.20945012 31 42.610+07 19 31.80         20.1 GVEF011807
         K24F00A |C2024 03 17.21276012 31 41.560+07 19 47.60         20.1 GVEF011807
         K24F00A KC2024 03 17.25508612 31 28.73 +07 22 26.3                VEF011H21
         K24F00A KC2024 03 17.26207612 31 26.51 +07 23 00.2          20.1 GVEF011H21
         K24F00A KC2024 03 17.26421912 31 25.83 +07 23 10.3          19.9 GVEF011H21
         K24F00A KC2024 03 17.26692312 31 24.97 +07 23 23.1          19.9 GVEF011H21
         K24F00A 1C2024 03 17.37934012 30 50.707+07 32 16.88               LEF011658
         K24F00A 1C2024 03 17.38268512 30 49.677+07 32 32.12               LEF011658
         K24F00A 1C2024 03 17.38604212 30 48.642+07 32 47.42               LEF011658
         K24F00A 1C2024 03 17.38938712 30 47.614+07 33 02.71               LEF011658
         K24F00A 1C2024 03 17.39274312 30 46.576+07 33 18.74               LEF011658
         K24F00A 1C2024 03 17.86067 12 28 28.48 +08 09 44.6          20.4 VXEF011033
         K24F00A 1C2024 03 17.86124 12 28 28.31 +08 09 48.3          19.7 VXEF011033
         K24F00A 1C2024 03 17.86182 12 28 28.10 +08 09 50.3          20.1 VXEF011033
         K24F00A 1C2024 03 17.86239 12 28 27.99 +08 09 53.2          20.2 VXEF011033
         K24F00A 1C2024 03 17.92661 12 28 08.50 +08 14 49.4          20.8 VXEF011033
         K24F00A 1C2024 03 17.92714 12 28 08.34 +08 14 51.6          20.7 VXEF011033
         K24F00A 1C2024 03 17.92767 12 28 08.21 +08 14 54.1          20.3 VXEF011033
    
    Observer details:
    033 Karl Schwarzschild Observatory, Tautenburg.  Observers S. Melnikov, C.
        Hogner, F. Ludwig, M. Hartmann, B. Stecklum.  Measurer B. Stecklum.
        1.34-m f/3 Schmidt + CCD.
    104 San Marcello Pistoiese.  Observers P. Bacci, M. Maestripieri.  Measurers
        P. Bacci, L. Tesi, G. Fagioli.  0.60-m F4 Reflector + CCD.
    658 National Research Council of Canada.  Observers D. D. Balam, C. E. Spratt.
        Measurers D. D. Balam, D. W. E. Green.  1.82-m Reflector + CCD.
    807 Cerro Tololo Observatory, La Serena.  Observers T. Linder, R. Holmes.
        0.61-m f/6.8 Ritchey-Chretien + CCD.
    958 Observatoire de Dax.  Observer P. Dupouy.  0.50-m f/4.5 Reflector + CMO.
    F52 Pan-STARRS 2, Haleakala.  Observers J. Herman, T. Lowe, P. Minguez, A.
        Schultz, I. Smith.  Measurers K. Chambers, T. de Boer, J. Fairlamb, H.
        Gao, M. Huber, C.-C. Lin, E. Magnier, Y. Ramanjooloo, R. Wainscoat, R.
        Weryk.  1.8-m Ritchey-Chretien + CCD.
    H21 Astronomical Research Observatory, Westfield.  Observer R. Holmes.
        Measurers T. Linder, R. Holmes, L. Horn.  0.76-m f/3.0 astrograph + CCD.
    L01 Visnjan Observatory, Tican.  Observer K. Korlevic.  1.0-m f/2.9 reflector
        + CCD.
    
    Orbital elements:
    2024 FA                                                  Earth MOID = 0.0577 AU
    Epoch 2024 Mar. 31.0 TT = JDT 2460400.5                 Veres                   
    M  90.41947              (2000.0)            P               Q                  
    n   0.93373618     Peri.  228.14442     +0.75295788     -0.65684518             
    a   1.0367004      Node   172.59172     +0.65726959     +0.74764238             
    e   0.5584205      Incl.   18.12430     +0.03242103     +0.09790444             
    P   1.06           H   22.49          G   0.15           U   9                  
    Residuals in seconds of arc
    240316 F52  0.0   0.2-    240316 104  0.3+  0.6+    240317 H21  0.1-  0.1-
    240316 F52  0.1-  0.0     240317 033  0.3+  0.1+    240317 658  1.2-  1.8+
    240316 F52  0.2-  0.0     240317 033  0.0   0.2-    240317 658  1.0-  1.1+
    240316 L01  0.0   0.0     240317 033  0.2+  0.0     240317 658  0.8-  0.5+
    240316 L01  0.1+  0.2-    240317 033  0.2+  0.1-    240317 658  0.5-  0.1-
    240316 L01  0.1+  0.0     240317 958  0.6-  1.6-    240317 658  0.3-  0.0
    240316 L01  0.3-  0.2+    240317 958  0.4+  2.7-    240317 033  0.4+  0.7-
    240316 L01  0.5-  0.2+    240317 958  0.5+  2.5-    240317 033  0.4+  0.3+
    240316 033  0.2-  0.0     240317 807  0.2-  0.0     240317 033  0.1-  0.4-
    240316 033  0.3+  0.2-    240317 807  0.0   0.1+    240317 033  0.8+  0.1-
    240316 033  0.0   0.3+    240317 807  0.0   0.1-    240317 033  0.3-  0.2+
    240316 033  0.2-  0.4+    240317 H21  0.1+  0.1-    240317 033  0.3-  0.1-
    240316 104  0.3-  0.1-    240317 H21  0.0   0.3+    240317 033  0.2+  0.0
    240316 104  0.5+  0.1+    240317 H21  0.0   0.1+
    
    Ephemeris:
    2024 FA                  a,e,i = 1.04, 0.56, 18                  q = 0.4578
    Date    TT    R. A. (2000) Decl.     Delta      r    Elong.  Phase     V
    2024 02 16    16 44 43.6 -45 08 14   0.2079  0.9454    72.3    95.6    22.4
    ...
    2024 03 02    14 19 04.0 -21 44 31   0.1691  1.0892   121.6    50.8    20.7
    ...
    2024 03 10    13 15 04.7 -04 37 55   0.1855  1.1580   150.4    25.1    20.3
    ...
    2024 03 16    12 38 01.8 +05 38 16   0.2167  1.2060   165.9    11.6    20.3
    2024 03 17    12 32 46.6 +07 02 10   0.2232  1.2137   167.3    10.3    20.3
    2024 03 18    12 27 46.5 +08 20 47   0.2300  1.2214   168.2     9.6    20.4
    ...
    2024 03 24    12 02 39.0 +14 32 22   0.2771  1.2654   163.9    12.6    21.0
    ...
    2024 04 01    11 40 03.1 +19 23 59   0.3521  1.3197   151.6    21.1    21.9
    ...
    2024 04 16    11 20 30.9 +22 48 08   0.5167  1.4081   133.1    31.4    23.1
    
    M. P. C. Staff               (C) Copyright 2024 MPC           M.P.E.C. 2024-F11
    


    Read MPEC 2024-F10 Read MPEC 2024-F12


    MPEC number:

    Enter an MPEC number in one of the following forms:

    • 1997-B01 (the full form)
    • J97B01 (the packed version of the full form)
    • B01 (the abbreviated form)